Location: Vancouver
(49.2500°N, 123.1330°W)
Time: 21:53:39
(UTC-07:00)

Transit 2A Rocket - Visible Passes

Search period start: 28 July 2015 00:00
Search period end: 07 August 2015 00:00
Orbit: 590 x 915 km, 66.7° (Epoch: 28 July)

Date Brightness Start Highest point End Pass type
(mag) Time Alt. Az. Time Alt. Az. Time Alt. Az.
28 Jul 6.7 00:40:07 10° WSW 00:45:15 33° NW 00:49:59 10° NNE visible
28 Jul 7.8 02:26:53 10° NW 02:29:28 13° NNW 02:31:53 10° NNE visible
28 Jul 8.0 04:12:42 10° N 04:14:21 11° N 04:16:00 10° NNE visible
28 Jul 5.6 22:14:51 10° S 22:20:13 39° ESE 22:25:16 10° NE visible
28 Jul 6.1 23:57:20 10° WSW 00:02:52 46° NW 00:07:58 10° NNE visible
29 Jul 7.8 01:43:24 10° WNW 01:46:46 16° NNW 01:49:54 10° NNE visible
29 Jul 8.1 03:30:25 10° N 03:31:34 11° N 03:32:44 10° NNE visible
29 Jul 6.2 21:33:38 10° SSE 21:38:14 25° ESE 21:42:42 10° ENE visible
29 Jul 5.5 23:14:49 10° SW 23:20:35 68° NW 23:25:54 10° NNE visible
30 Jul 7.6 01:00:04 10° WNW 01:04:09 20° NNW 01:07:56 10° NNE visible
30 Jul 8.1 02:47:29 10° NNW 02:48:47 11° N 02:50:02 10° N visible
30 Jul 7.8 04:30:50 10° NNW 04:33:36 15° NNE 04:36:20 10° ENE visible
30 Jul 5.1 22:32:35 10° SSW 22:38:24 82° SE 22:43:46 10° NE visible
31 Jul 7.2 00:16:54 10° W 00:21:36 26° NW 00:25:57 10° NNE visible
31 Jul 8.1 02:04:05 10° NNW 02:06:01 12° NNW 02:07:51 10° N visible
31 Jul 8.0 03:48:52 10° N 03:50:54 12° NNE 03:52:56 10° NE visible
31 Jul 5.3 21:50:40 10° SSW 21:56:17 53° ESE 22:01:31 10° NE visible
31 Jul 6.7 23:33:57 10° WSW 23:39:10 36° NW 23:43:58 10° NNE visible
01 Aug 8.0 01:20:33 10° NW 01:23:17 14° NNW 01:25:50 10° NNE visible
01 Aug 8.2 03:06:48 10° N 03:08:09 11° N 03:09:30 10° NNE visible
01 Aug 7.5 04:48:50 10° NNW 04:52:40 23° NNE 04:56:18 10° E visible
01 Aug 6.0 22:51:15 10° WSW 22:56:49 51° NW 23:01:57 10° NNE visible
02 Aug 7.9 00:37:05 10° WNW 00:40:36 17° NNW 00:43:53 10° NNE visible
02 Aug 8.3 02:24:24 10° N 02:25:22 10° N 02:26:18 10° N visible
02 Aug 7.8 04:06:52 10° NNW 04:10:04 17° NNE 04:13:11 10° ENE visible
02 Aug 5.3 22:08:48 10° SW 22:14:34 76° NW 22:19:52 10° NE visible
02 Aug 7.6 23:53:47 10° W 23:58:01 22° NNW 00:01:55 10° NNE visible
03 Aug 8.3 01:41:16 10° NNW 01:42:35 11° N 01:43:51 10° N visible
03 Aug 8.0 03:24:56 10° NNW 03:27:25 14° NNE 03:29:54 10° NE visible
03 Aug 6.2 05:06:54 10° NNW 05:11:26 41° NE 05:15:39 10° ESE visible
03 Aug 5.1 21:26:39 10° SSW 21:32:24 73° ESE 21:37:42 10° NE visible
03 Aug 7.2 23:10:40 10° W 23:15:30 28° NW 23:19:57 10° NNE visible
04 Aug 8.2 00:57:45 10° NW 00:59:49 12° NNW 01:01:46 10° N visible
04 Aug 8.2 02:42:58 10° N 02:44:42 12° NNE 02:46:26 10° NNE visible
04 Aug 7.0 04:24:52 10° NNW 04:29:01 28° NE 04:32:56 10° E visible
04 Aug 6.6 22:27:47 10° WSW 22:33:05 39° NW 22:37:57 10° NNE visible
05 Aug 8.2 00:14:12 10° NW 00:17:06 14° NNW 00:19:48 10° NNE visible
05 Aug 8.4 02:00:55 10° N 02:01:56 11° N 02:02:58 10° NNE visible
05 Aug 7.5 03:42:54 10° NNW 03:46:31 21° NNE 03:49:58 10° E visible
05 Aug 5.9 21:45:09 10° SW 21:50:47 57° NW 21:55:55 10° NNE visible
05 Aug 7.9 23:30:46 10° WNW 23:34:27 18° NNW 23:37:51 10° NNE visible
06 Aug 8.4 01:18:21 10° N 01:19:09 10° N 01:19:56 10° N visible
06 Aug 7.9 03:00:57 10° NNW 03:03:54 16° NNE 03:06:47 10° ENE visible
06 Aug 5.4 04:42:59 10° NNW 04:47:38 56° NE 04:51:58 10° SE visible
06 Aug 7.6 22:47:31 10° W 22:51:52 23° NNW 22:55:55 10° NNE visible
